Glenwood, MN

8:38 AM CDT on March 29, 2017 (GMT -0500)
Glenwood Municipal

Weather History for KGHW - November, 2011

Change the Weather History Date:

Wednesday, November 30, 2011

  Actual Average Record
Temperature  
Mean Temperature 29 °F -  
Max Temperature 37 °F 33 °F 50 °F (1973)
Min Temperature 21 °F 16 °F -18 °F (1964)
Degree Days  
Heating Degree Days 36    
Moisture  
Dew Point 18 °F    
Average Humidity 60    
Maximum Humidity 86    
Minimum Humidity 45    
Precipitation  
Precipitation 0.00 in - - ()
Sea Level Pressure  
Sea Level Pressure 29.91 in    
Wind  
Wind Speed 6 mph (SW)    
Max Wind Speed 15 mph    
Max Gust Speed 18 mph    
Visibility 10 miles    
Events Snow    
Averages and records for this station are not official NWS values.
T = Trace of Precipitation, MM = Missing Value Source: NWS Daily Summary

Daily Weather History Graph

Daily Weather History Graph

Search for Another Location

Airport or City:

Trip Planner

Search our weather history database for the weather conditions in past years. The results will help you decide how hot, cold, wet, or windy it might be!

Date:

Astronomy

Nov. 30, 2011 Rise Set
Actual Time 7:40 AM CST 4:39 PM CST
Civil Twilight 7:06 AM CST 5:13 PM CST
Nautical Twilight 6:29 AM CST 5:50 PM CST
Astronomical Twilight 5:53 AM CST 6:25 PM CST
Moon 11:49 AM CST (11/30) 10:48 PM CST (11/30)
Length of Visible Light 10h 06m
Length of Day
8h 59m
Waxing Crescent, 34% of the Moon is Illuminated
Nov 30
Waxing Crescent
Dec 2
First Quarter
Dec 10
Full
Dec 17
Last Quarter
Dec 24
New

Hourly Weather History & Observations

Time (CST) Temp. Windchill Dew Point Humidity Pressure Visibility Wind Dir Wind Speed Gust Speed Precip Events Conditions
12:14 AM 23.0 °F 17.0 °F 12.2 °F 63% 30.02 in 10.0 mi SSW 4.6 mph - N/A   Clear
12:34 AM 21.2 °F 12.6 °F 12.2 °F 68% 30.00 in 10.0 mi SSW 6.9 mph - N/A   Clear
12:53 AM 23.0 °F 13.9 °F 12.2 °F 63% 29.99 in 10.0 mi South 8.1 mph - N/A   Clear
1:14 AM 24.8 °F 16.1 °F 12.2 °F 59% 29.98 in 10.0 mi SSW 8.1 mph - N/A   Clear
1:34 AM 26.6 °F 17.5 °F 14.0 °F 59% 29.97 in 10.0 mi SW 9.2 mph - N/A   Clear
1:54 AM 26.6 °F 16.8 °F 14.0 °F 59% 29.97 in 10.0 mi SSW 10.4 mph - N/A   Clear
2:13 AM 26.6 °F 17.5 °F 14.0 °F 59% 29.96 in 10.0 mi SSW 9.2 mph - N/A   Clear
2:54 AM 26.6 °F 19.1 °F 15.8 °F 64% 29.95 in 10.0 mi South 6.9 mph - N/A   Clear
3:14 AM 26.6 °F 18.2 °F 15.8 °F 64% 29.94 in 10.0 mi South 8.1 mph - N/A   Clear
3:33 AM 26.6 °F 19.1 °F 15.8 °F 64% 29.93 in 10.0 mi South 6.9 mph - N/A   Clear
3:54 AM 26.6 °F 18.2 °F 14.0 °F 59% 29.92 in 10.0 mi South 8.1 mph - N/A   Clear
4:13 AM 26.6 °F 18.2 °F 14.0 °F 59% 29.91 in 10.0 mi South 8.1 mph - N/A   Clear
4:33 AM 26.6 °F 19.1 °F 14.0 °F 59% 29.91 in 10.0 mi SSW 6.9 mph - N/A   Clear
4:53 AM 26.6 °F 19.1 °F 12.2 °F 55% 29.90 in 10.0 mi SSW 6.9 mph - N/A   Clear
5:14 AM 24.8 °F 16.9 °F 12.2 °F 59% 29.89 in 10.0 mi SSW 6.9 mph - N/A   Clear
5:34 AM 26.6 °F 20.0 °F 12.2 °F 55% 29.88 in 10.0 mi SSW 5.8 mph - N/A   Clear
5:53 AM 26.6 °F 20.0 °F 12.2 °F 55% 29.88 in 10.0 mi South 5.8 mph - N/A   Clear
6:14 AM 26.6 °F 21.2 °F 14.0 °F 59% 29.89 in 10.0 mi SSW 4.6 mph - N/A   Clear
6:34 AM 26.6 °F 20.0 °F 15.8 °F 64% 29.89 in 10.0 mi SW 5.8 mph - N/A   Clear
7:13 AM 26.6 °F 21.2 °F 15.8 °F 64% 29.88 in 10.0 mi SSW 4.6 mph - N/A   Clear
7:33 AM 26.6 °F 21.2 °F 15.8 °F 64% 29.87 in 10.0 mi SSW 4.6 mph - N/A   Scattered Clouds
7:53 AM 26.6 °F 22.6 °F 15.8 °F 64% 29.87 in 10.0 mi South 3.5 mph - N/A   Scattered Clouds
8:14 AM 28.4 °F 24.6 °F 15.8 °F 59% 29.87 in 10.0 mi SSW 3.5 mph - N/A   Mostly Cloudy
8:34 AM 28.4 °F 23.3 °F 15.8 °F 59% 29.88 in 10.0 mi SSW 4.6 mph - N/A   Mostly Cloudy
8:54 AM 28.4 °F 22.2 °F 15.8 °F 59% 29.88 in 10.0 mi WSW 5.8 mph - N/A   Mostly Cloudy
9:13 AM 30.2 °F 24.3 °F 15.8 °F 55% 29.88 in 10.0 mi SW 5.8 mph - N/A   Mostly Cloudy
9:34 AM 30.2 °F 26.7 °F 15.8 °F 55% 29.88 in 10.0 mi SW 3.5 mph - N/A   Mostly Cloudy
10:13 AM 32.0 °F 27.5 °F 15.8 °F 51% 29.89 in 10.0 mi SW 4.6 mph - N/A   Mostly Cloudy
10:33 AM 33.8 °F - 15.8 °F 48% 29.88 in 10.0 mi Calm Calm - N/A   Mostly Cloudy
10:52 AM 33.8 °F 30.8 °F 17.6 °F 52% 29.87 in 10.0 mi South 3.5 mph - N/A   Scattered Clouds
11:13 AM 35.6 °F - 17.6 °F 48% 29.87 in 10.0 mi Calm Calm - N/A   Scattered Clouds
11:34 AM 37.4 °F 32.1 °F 17.6 °F 45% 29.88 in 10.0 mi NW 6.9 mph - N/A   Scattered Clouds
11:54 AM 37.4 °F 33.8 °F 17.6 °F 45% 29.87 in 10.0 mi NW 4.6 mph - N/A   Clear
12:14 PM 37.4 °F 32.8 °F 19.4 °F 48% 29.87 in 10.0 mi NNW 5.8 mph - N/A   Scattered Clouds
12:34 PM 37.4 °F 33.8 °F 19.4 °F 48% 29.86 in 10.0 mi North 4.6 mph - N/A   Clear
12:53 PM 37.4 °F - 19.4 °F 48% 29.87 in 10.0 mi Calm Calm - N/A   Clear
1:13 PM 37.4 °F 33.8 °F 19.4 °F 48% 29.86 in 10.0 mi North 4.6 mph - N/A   Clear
1:34 PM 37.4 °F 33.8 °F 19.4 °F 48% 29.86 in 10.0 mi NNE 4.6 mph - N/A   Clear
1:54 PM 37.4 °F 32.8 °F 21.2 °F 52% 29.85 in 10.0 mi NNE 5.8 mph - N/A   Clear
2:14 PM 37.4 °F 32.1 °F 19.4 °F 48% 29.85 in 10.0 mi North 6.9 mph - N/A   Clear
2:34 PM 37.4 °F - 21.2 °F 52% 29.85 in 10.0 mi Calm Calm - N/A   Clear
2:53 PM 37.4 °F - 21.2 °F 52% 29.87 in 10.0 mi Calm Calm - N/A   Clear
3:14 PM 37.4 °F 33.8 °F 21.2 °F 52% 29.87 in 10.0 mi North 4.6 mph - N/A   Clear
3:34 PM 37.4 °F 33.8 °F 21.2 °F 52% 29.88 in 10.0 mi NNE 4.6 mph - N/A   Scattered Clouds
3:53 PM 37.4 °F 33.8 °F 21.2 °F 52% 29.88 in 10.0 mi NNE 4.6 mph - N/A   Mostly Cloudy
4:14 PM 37.4 °F 34.9 °F 23.0 °F 56% 29.89 in 10.0 mi NNE 3.5 mph - N/A   Mostly Cloudy
4:34 PM 35.6 °F 30.7 °F 23.0 °F 60% 29.90 in 10.0 mi North 5.8 mph - N/A   Overcast
4:53 PM 35.6 °F 29.2 °F 23.0 °F 60% 29.92 in 10.0 mi NNE 8.1 mph - N/A   Overcast
5:13 PM 35.6 °F 27.1 °F 23.0 °F 60% 29.93 in 10.0 mi NNE 12.7 mph - N/A   Mostly Cloudy
5:34 PM 35.6 °F 27.5 °F 23.0 °F 60% 29.94 in 10.0 mi NNE 11.5 mph - N/A   Overcast
5:54 PM 33.8 °F 23.9 °F 24.8 °F 70% 29.95 in 7.0 mi NNE 15.0 mph 18.4 mph N/A Snow Light Snow
6:13 PM 33.8 °F 25.3 °F 24.8 °F 70% 29.96 in 7.0 mi NNE 11.5 mph 17.3 mph N/A Snow Light Snow
6:33 PM 32.0 °F 23.6 °F 26.6 °F 80% 29.97 in 7.0 mi NE 10.4 mph - N/A Snow Light Snow
6:54 PM 32.0 °F 23.6 °F 26.6 °F 80% 29.98 in 7.0 mi NNE 10.4 mph - N/A Snow Light Snow
7:13 PM 30.2 °F 22.6 °F 26.6 °F 86% 29.99 in 7.0 mi NNE 8.1 mph - N/A Snow Light Snow
7:34 PM 30.2 °F 21.3 °F 26.6 °F 86% 30.00 in 10.0 mi NNE 10.4 mph - N/A Snow Light Snow
7:54 PM 30.2 °F 21.9 °F 26.6 °F 86% 30.01 in 10.0 mi NNE 9.2 mph - N/A   Overcast
8:13 PM 30.2 °F 20.8 °F 26.6 °F 86% 30.02 in 10.0 mi NNE 11.5 mph - N/A   Overcast
8:33 PM 30.2 °F 21.3 °F 26.6 °F 86% 30.03 in 10.0 mi NNE 10.4 mph - N/A   Overcast
8:54 PM 30.2 °F 21.3 °F 26.6 °F 86% 30.05 in 10.0 mi NNE 10.4 mph 17.3 mph N/A   Overcast
9:13 PM 30.2 °F 20.2 °F 26.6 °F 86% 30.05 in 10.0 mi NNE 12.7 mph - N/A   Overcast
9:34 PM 30.2 °F 20.2 °F 26.6 °F 86% 30.06 in 10.0 mi NNE 12.7 mph - N/A   Mostly Cloudy
9:54 PM 30.2 °F 20.2 °F 26.6 °F 86% 30.06 in 10.0 mi NNE 12.7 mph - N/A   Mostly Cloudy
10:14 PM 30.2 °F 20.8 °F 26.6 °F 86% 30.07 in 10.0 mi NNE 11.5 mph - N/A   Mostly Cloudy
10:34 PM 30.2 °F 20.8 °F 26.6 °F 86% 30.08 in 10.0 mi NNE 11.5 mph - N/A   Mostly Cloudy
10:54 PM 30.2 °F 19.8 °F 26.6 °F 86% 30.10 in 10.0 mi North 13.8 mph - N/A   Overcast
11:13 PM 30.2 °F 21.9 °F 26.6 °F 86% 30.11 in 10.0 mi North 9.2 mph - N/A   Overcast
11:34 PM 30.2 °F 21.9 °F 26.6 °F 86% 30.12 in 10.0 mi North 9.2 mph - N/A   Overcast
11:54 PM 30.2 °F 21.9 °F 26.6 °F 86% 30.13 in 10.0 mi North 9.2 mph - N/A   Overcast